| time (UTC) | temp F | wind direction | speed knots | gust knots | rain 1hr in | rain 24hr in | rain mn in | humidity % | barometer mb |
| 20260903001710 | 84 | 221 | 8.7 | 13.9 | 0.00 | 0.00 | 0.00 | 39 | 1013.5 |
| 20260903001211 | 84 | 227 | 7.8 | 12.2 | 0.00 | 0.00 | 0.00 | 38 | 1013.5 |
| 20260903000652 | 84 | 216 | 7.8 | 13.9 | 0.00 | 0.00 | 0.00 | 38 | 1013.6 |
| 20260903000154 | 85 | 242 | 7.0 | 13.9 | 0.00 | 0.00 | 0.00 | 37 | 1013.6 |
| 20260902235654 | 85 | 222 | 6.1 | 12.2 | 0.00 | 0.00 | 0.00 | 40 | 1013.6 |
| 20260902234649 | 86 | 213 | 6.1 | 13.0 | 0.00 | 0.00 | 0.00 | 39 | 1013.7 |
| 20260902234420 | 86 | 219 | 6.1 | 12.2 | 0.00 | 0.00 | 0.00 | 39 | 1013.7 |
| 20260902233718 | 86 | 253 | 7.0 | 12.2 | 0.00 | 0.00 | 0.00 | 40 | 1013.7 |
| 20260902233150 | 86 | 220 | 7.0 | 10.4 | 0.00 | 0.00 | 0.00 | 38 | 1013.7 |
| 20260902232916 | 86 | 266 | 6.1 | 9.6 | 0.00 | 0.00 | 0.00 | 38 | 1013.7 |
| 20260902232416 | 87 | 229 | 5.2 | 13.0 | 0.00 | 0.00 | 0.00 | 37 | 1013.7 |
| 20260902231917 | 87 | 202 | 6.1 | 13.0 | 0.00 | 0.00 | 0.00 | 36 | 1013.8 |
| 20260902231145 | 87 | 221 | 6.1 | 11.3 | 0.00 | 0.00 | 0.00 | 37 | 1013.8 |
| 20260902230641 | 86 | 221 | 7.0 | 13.0 | 0.00 | 0.00 | 0.00 | 36 | 1013.8 |
| 20260902230412 | 87 | 215 | 7.0 | 13.0 | 0.00 | 0.00 | 0.00 | 36 | 1013.9 |
| 20260902225641 | 88 | 221 | 6.1 | 13.0 | 0.00 | 0.00 | 0.00 | 33 | 1013.9 |
| 20260902225141 | 88 | 218 | 6.1 | 13.0 | 0.00 | 0.00 | 0.00 | 32 | 1013.9 |
| 20260902224138 | 89 | 201 | 5.2 | 10.4 | 0.00 | 0.00 | 0.00 | 30 | 1014.0 |
| 20260902223638 | 88 | 217 | 5.2 | 11.3 | 0.00 | 0.00 | 0.00 | 29 | 1014.0 |
| 20260902223408 | 88 | 225 | 6.1 | 12.2 | 0.00 | 0.00 | 0.00 | 29 | 1014.1 |
| 20260902222632 | 88 | 221 | 6.1 | 12.2 | 0.00 | 0.00 | 0.00 | 30 | 1014.2 |
| 20260902222133 | 88 | 223 | 6.1 | 11.3 | 0.00 | 0.00 | 0.00 | 27 | 1014.3 |
| 20260902221633 | 88 | 217 | 5.2 | 11.3 | 0.00 | 0.00 | 0.00 | 29 | 1014.3 |
| 20260902221133 | 88 | 219 | 6.1 | 10.4 | 0.00 | 0.00 | 0.00 | 30 | 1014.4 |
| 20260902220628 | 88 | 215 | 6.1 | 12.2 | 0.00 | 0.00 | 0.00 | 29 | 1014.4 |
| 20260902220129 | 89 | 202 | 6.1 | 12.2 | 0.00 | 0.00 | 0.00 | 28 | 1014.5 |
| 20260902215901 | 88 | 248 | 5.2 | 11.3 | 0.00 | 0.00 | 0.00 | 28 | 1014.5 |
| 20260902215635 | 88 | 248 | 5.2 | 11.3 | 0.00 | 0.00 | 0.00 | 28 | 1014.5 |
| 20260902215147 | 87 | 224 | 5.2 | 11.3 | 0.00 | 0.00 | 0.00 | 28 | 1014.5 |
| 20260902214625 | 88 | 226 | 5.2 | 11.3 | 0.00 | 0.00 | 0.00 | 28 | 1014.6 |
| 20260902214125 | 88 | 209 | 5.2 | 9.6 | 0.00 | 0.00 | 0.00 | 29 | 1014.6 |
| 20260902213625 | 88 | 220 | 5.2 | 9.6 | 0.00 | 0.00 | 0.00 | 28 | 1014.6 |
| 20260902213125 | 89 | 215 | 4.3 | 12.2 | 0.00 | 0.00 | 0.00 | 29 | 1014.6 |
| 20260902212620 | 88 | 229 | 4.3 | 12.2 | 0.00 | 0.00 | 0.00 | 29 | 1014.7 |
| 20260902212121 | 88 | 229 | 5.2 | 10.4 | 0.00 | 0.00 | 0.00 | 30 | 1014.7 |
| 20260902211852 | 87 | 201 | 5.2 | 9.6 | 0.00 | 0.00 | 0.00 | 29 | 1014.8 |
| 20260902211122 | 87 | 223 | 3.5 | 9.6 | 0.00 | 0.00 | 0.00 | 31 | 1014.9 |
| 20260902210618 | 86 | 225 | 4.3 | 9.6 | 0.00 | 0.00 | 0.00 | 31 | 1014.9 |
| 20260902210117 | 86 | 237 | 6.1 | 11.3 | 0.00 | 0.00 | 0.00 | 33 | 1015.0 |
| 20260902205848 | 87 | 221 | 5.2 | 11.3 | 0.00 | 0.00 | 0.00 | 33 | 1015.1 |
| 20260902205118 | 87 | 227 | 4.3 | 9.6 | 0.00 | 0.00 | 0.00 | 33 | 1015.2 |
| 20260902204612 | 86 | 238 | 4.3 | 8.7 | 0.00 | 0.00 | 0.00 | 35 | 1015.2 |
| 20260902203613 | 86 | 257 | 4.3 | 8.7 | 0.00 | 0.00 | 0.00 | 34 | 1015.3 |
| 20260902203114 | 86 | 221 | 4.3 | 8.7 | 0.00 | 0.00 | 0.00 | 34 | 1015.2 |
| 20260902202839 | 86 | 202 | 3.5 | 8.7 | 0.00 | 0.00 | 0.00 | 35 | 1015.3 |
| 20260902202109 | 86 | 223 | 4.3 | 9.6 | 0.00 | 0.00 | 0.00 | 36 | 1015.3 |
| 20260902201609 | 86 | 254 | 4.3 | 9.6 | 0.00 | 0.00 | 0.00 | 37 | 1015.4 |
| 20260902201109 | 86 | 236 | 2.6 | 7.0 | 0.00 | 0.00 | 0.00 | 37 | 1015.5 |
| 20260902200605 | 86 | 236 | 3.5 | 7.0 | 0.00 | 0.00 | 0.00 | 37 | 1015.6 |
| 20260902200106 | 86 | 229 | 3.5 | 7.8 | 0.00 | 0.00 | 0.00 | 37 | 1015.6 |
| 20260902195606 | 85 | 213 | 4.3 | 8.7 | 0.00 | 0.00 | 0.00 | 33 | 1015.7 |
| 20260902195106 | 84 | 223 | 3.5 | 9.6 | 0.00 | 0.00 | 0.00 | 34 | 1015.7 |
| 20260902194600 | 84 | 224 | 4.3 | 9.6 | 0.00 | 0.00 | 0.00 | 37 | 1015.8 |
| 20260902194101 | 84 | 220 | 4.3 | 7.8 | 0.00 | 0.00 | 0.00 | 36 | 1015.8 |
| 20260902193601 | 84 | 220 | 4.3 | 7.8 | 0.00 | 0.00 | 0.00 | 35 | 1015.9 |
| 20260902193101 | 84 | 255 | 4.3 | 8.7 | 0.00 | 0.00 | 0.00 | 36 | 1015.9 |
| 20260902192556 | 83 | 259 | 4.3 | 10.4 | 0.00 | 0.00 | 0.00 | 38 | 1016.0 |
| 20260902192057 | 83 | 257 | 4.3 | 10.4 | 0.00 | 0.00 | 0.00 | 36 | 1016.1 |
| 20260902191557 | 83 | 221 | 3.5 | 8.7 | 0.00 | 0.00 | 0.00 | 38 | 1016.2 |
| 20260902191057 | 82 | 239 | 3.5 | 6.1 | 0.00 | 0.00 | 0.00 | 39 | 1016.2 |
| 20260902190553 | 82 | 221 | 4.3 | 8.7 | 0.00 | 0.00 | 0.00 | 37 | 1016.3 |
| 20260902190106 | 82 | 221 | 5.2 | 9.6 | 0.00 | 0.00 | 0.00 | 38 | 1016.3 |
| 20260902185053 | 83 | 237 | 2.6 | 7.8 | 0.00 | 0.00 | 0.00 | 39 | 1016.3 |
| 20260902184552 | 82 | 241 | 2.6 | 6.1 | 0.00 | 0.00 | 0.00 | 39 | 1016.3 |
| 20260902184049 | 82 | 248 | 3.5 | 6.1 | 0.00 | 0.00 | 0.00 | 40 | 1016.4 |
| 20260902183820 | 82 | 248 | 3.5 | 6.1 | 0.00 | 0.00 | 0.00 | 40 | 1016.5 |
| 20260902183050 | 81 | 244 | 2.6 | 6.1 | 0.00 | 0.00 | 0.00 | 39 | 1016.6 |
| 20260902182815 | 81 | 240 | 2.6 | 7.0 | 0.00 | 0.00 | 0.00 | 41 | 1016.8 |
| 20260902182045 | 80 | 240 | 2.6 | 7.0 | 0.00 | 0.00 | 0.00 | 43 | 1016.6 |
| 20260902181545 | 80 | 234 | 2.6 | 6.1 | 0.00 | 0.00 | 0.00 | 42 | 1016.6 |
| 20260902181046 | 79 | 234 | 2.6 | 6.1 | 0.00 | 0.00 | 0.00 | 43 | 1016.8 |
| 20260902180812 | 78 | 236 | 2.6 | 5.2 | 0.00 | 0.00 | 0.00 | 44 | 1016.8 |
| 20260902180042 | 78 | 235 | 2.6 | 6.1 | 0.00 | 0.00 | 0.00 | 43 | 1016.8 |
| 20260902175541 | 78 | 235 | 2.6 | 6.1 | 0.00 | 0.00 | 0.00 | 46 | 1016.9 |
| 20260902174537 | 78 | 227 | 1.7 | 5.2 | 0.00 | 0.00 | 0.00 | 49 | 1016.9 |
| 20260902174037 | 78 | 227 | 1.7 | 6.1 | 0.00 | 0.00 | 0.00 | 50 | 1016.8 |
| 20260902173540 | 77 | 227 | 1.7 | 6.1 | 0.00 | 0.00 | 0.00 | 51 | 1016.9 |
| 20260902173308 | 77 | 227 | 1.7 | 4.3 | 0.00 | 0.00 | 0.00 | 51 | 1016.9 |
| 20260902172534 | 77 | 227 | 1.7 | 4.3 | 0.00 | 0.00 | 0.00 | 53 | 1016.9 |
| 20260902172308 | 76 | 226 | 0.9 | 4.3 | 0.00 | 0.00 | 0.00 | 53 | 1016.9 |
| 20260902171533 | 75 | 226 | 1.7 | 4.3 | 0.00 | 0.00 | 0.00 | 55 | 1016.9 |
| 20260902171033 | 75 | 226 | 2.6 | 4.3 | 0.00 | 0.00 | 0.00 | 55 | 1016.9 |
| 20260902170759 | 74 | 226 | 1.7 | 4.3 | 0.00 | 0.00 | 0.00 | 56 | 1016.8 |
| 20260902170544 | 74 | 226 | 1.7 | 4.3 | 0.00 | 0.00 | 0.00 | 56 | 1016.8 |
| 20260902170030 | 74 | 226 | 1.7 | 3.5 | 0.00 | 0.00 | 0.00 | 59 | 1016.8 |
| 20260902165529 | 73 | 227 | 1.7 | 4.3 | 0.00 | 0.00 | 0.00 | 61 | 1016.9 |
| 20260902165300 | 72 | 227 | 2.6 | 4.3 | 0.00 | 0.00 | 0.00 | 61 | 1016.8 |
| 20260902164524 | 72 | 227 | 1.7 | 5.2 | 0.00 | 0.00 | 0.00 | 63 | 1016.8 |
| 20260902164028 | 72 | 227 | 0.9 | 5.2 | 0.00 | 0.00 | 0.00 | 64 | 1016.8 |
| 20260902163757 | 71 | 227 | 1.7 | 3.5 | 0.00 | 0.00 | 0.00 | 67 | 1016.8 |
| 20260902163026 | 71 | 227 | 1.7 | 4.3 | 0.00 | 0.00 | 0.00 | 68 | 1016.8 |
| 20260902162753 | 71 | 227 | 1.7 | 4.3 | 0.00 | 0.00 | 0.00 | 68 | 1016.8 |
| 20260902162021 | 70 | 227 | 1.7 | 4.3 | 0.00 | 0.00 | 0.00 | 70 | 1016.8 |
| 20260902161522 | 70 | 227 | 1.7 | 4.3 | 0.00 | 0.00 | 0.00 | 72 | 1016.6 |
| 20260902160517 | 69 | 227 | 1.7 | 4.3 | 0.00 | 0.00 | 0.00 | 75 | 1016.6 |
| 20260902160252 | 68 | 226 | 2.6 | 4.3 | 0.00 | 0.00 | 0.00 | 76 | 1016.8 |
| 20260902155749 | 68 | 226 | 1.7 | 4.3 | 0.00 | 0.00 | 0.00 | 77 | 1016.8 |
| 20260902155018 | 68 | 226 | 1.7 | 4.3 | 0.00 | 0.00 | 0.00 | 77 | 1016.8 |
| 20260902154512 | 68 | 227 | 1.7 | 4.3 | 0.00 | 0.00 | 0.00 | 78 | 1016.8 |
| 20260902154014 | 67 | 226 | 1.7 | 4.3 | 0.00 | 0.00 | 0.00 | 78 | 1016.8 |
| 20260902153513 | 67 | 226 | 1.7 | 4.3 | 0.00 | 0.00 | 0.00 | 79 | 1016.8 |
| 20260902153244 | 67 | 226 | 1.7 | 3.5 | 0.00 | 0.00 | 0.00 | 79 | 1016.8 |
| 20260902152512 | 67 | 226 | 1.7 | 4.3 | 0.00 | 0.00 | 0.00 | 78 | 1016.6 |
| 20260902151514 | 67 | 226 | 0.9 | 4.3 | 0.00 | 0.00 | 0.00 | 79 | 1016.5 |
| 20260902151009 | 66 | 226 | 1.7 | 4.3 | 0.00 | 0.00 | 0.00 | 79 | 1016.5 |
| 20260902150010 | 66 | 229 | 1.7 | 4.3 | 0.00 | 0.00 | 0.00 | 79 | 1016.5 |
| 20260902145509 | 66 | 229 | 1.7 | 4.3 | 0.00 | 0.00 | 0.00 | 79 | 1016.6 |
| 20260902145005 | 66 | 229 | 0.9 | 3.5 | 0.00 | 0.00 | 0.00 | 79 | 1016.6 |
| 20260902144737 | 66 | 229 | 0.9 | 4.3 | 0.00 | 0.00 | 0.00 | 79 | 1016.6 |
| 20260902144006 | 66 | 229 | 0.9 | 4.3 | 0.00 | 0.00 | 0.00 | 79 | 1016.4 |
| 20260902143736 | 66 | 229 | 0.0 | 4.3 | 0.00 | 0.00 | 0.00 | 79 | 1016.5 |
| 20260902143001 | 65 | 236 | 0.0 | 3.5 | 0.00 | 0.00 | 0.00 | 79 | 1016.4 |
| 20260902142732 | 65 | 236 | 0.0 | 3.5 | 0.00 | 0.00 | 0.00 | 79 | 1016.4 |
| 20260902141501 | 65 | 236 | 0.0 | 2.6 | 0.00 | 0.00 | 0.00 | 81 | 1016.3 |
| 20260902141228 | 65 | 236 | 0.0 | 1.7 | 0.00 | 0.00 | 0.00 | 81 | 1016.2 |
| 20260902140559 | 64 | 236 | 0.0 | 1.7 | 0.00 | 0.00 | 0.00 | 81 | 1016.2 |
| 20260902135504 | 64 | 236 | 0.0 | 0.0 | 0.00 | 0.00 | 0.00 | 81 | 1016.2 |
| 20260902134454 | 64 | 236 | 0.0 | 0.0 | 0.00 | 0.00 | 0.00 | 82 | 1016.1 |
| 20260902133954 | 64 | 236 | 0.0 | 0.0 | 0.00 | 0.00 | 0.00 | 82 | 1016.0 |
| 20260902133454 | 64 | 236 | 0.0 | 0.0 | 0.00 | 0.00 | 0.00 | 81 | 1016.1 |
| 20260902132950 | 64 | 236 | 0.0 | 0.0 | 0.00 | 0.00 | 0.00 | 82 | 1016.1 |
| 20260902132720 | 64 | 236 | 0.0 | 0.0 | 0.00 | 0.00 | 0.00 | 81 | 1016.1 |
| 20260902131949 | 64 | 236 | 0.0 | 0.0 | 0.00 | 0.00 | 0.00 | 82 | 1016.0 |
| 20260902131449 | 64 | 236 | 0.0 | 0.0 | 0.00 | 0.00 | 0.00 | 82 | 1016.0 |
| 20260902130945 | 64 | 236 | 0.0 | 0.0 | 0.00 | 0.00 | 0.00 | 82 | 1016.0 |
| 20260902130445 | 64 | 236 | 0.0 | 0.0 | 0.00 | 0.00 | 0.00 | 82 | 1016.0 |
| 20260902125946 | 64 | 236 | 0.0 | 0.0 | 0.00 | 0.00 | 0.00 | 82 | 1016.1 |
| 20260902125445 | 64 | 236 | 0.0 | 0.0 | 0.00 | 0.00 | 0.00 | 82 | 1016.1 |
| 20260902124941 | 64 | 236 | 0.0 | 0.0 | 0.00 | 0.00 | 0.00 | 82 | 1016.2 |
| 20260902124441 | 64 | 236 | 0.0 | 0.0 | 0.00 | 0.00 | 0.00 | 82 | 1016.2 |
| 20260902123941 | 64 | 236 | 0.0 | 0.0 | 0.00 | 0.00 | 0.00 | 82 | 1016.2 |
| 20260902123441 | 64 | 236 | 0.0 | 0.0 | 0.00 | 0.00 | 0.00 | 82 | 1016.2 |
| 20260902122936 | 64 | 236 | 0.0 | 0.0 | 0.00 | 0.00 | 0.00 | 82 | 1016.2 |
| 20260902122437 | 64 | 236 | 0.0 | 0.9 | 0.00 | 0.00 | 0.00 | 82 | 1016.2 |
| 20260902121937 | 64 | 236 | 0.0 | 2.6 | 0.00 | 0.00 | 0.00 | 82 | 1016.1 |
| 20260902121437 | 64 | 236 | 0.0 | 2.6 | 0.00 | 0.00 | 0.00 | 82 | 1016.2 |
| 20260902120933 | 64 | 236 | 0.0 | 0.9 | 0.00 | 0.00 | 0.00 | 82 | 1016.1 |
| 20260902120433 | 64 | 236 | 0.0 | 2.6 | 0.00 | 0.00 | 0.00 | 82 | 1016.1 |
| 20260902115933 | 64 | 236 | 0.9 | 2.6 | 0.00 | 0.00 | 0.00 | 83 | 1016.2 |
| 20260902115433 | 64 | 236 | 0.9 | 3.5 | 0.00 | 0.00 | 0.00 | 83 | 1016.2 |
| 20260902115200 | 64 | 236 | 0.9 | 3.5 | 0.00 | 0.00 | 0.00 | 83 | 1016.2 |
| 20260902114429 | 63 | 236 | 0.0 | 2.6 | 0.00 | 0.00 | 0.00 | 83 | 1016.2 |
| 20260902113929 | 63 | 236 | 0.0 | 0.0 | 0.00 | 0.00 | 0.00 | 83 | 1016.2 |
| 20260902113442 | 63 | 236 | 0.0 | 0.0 | 0.00 | 0.00 | 0.00 | 83 | 1016.3 |
| 20260902112925 | 63 | 236 | 0.0 | 0.0 | 0.00 | 0.00 | 0.00 | 83 | 1016.2 |
| 20260902112425 | 63 | 236 | 0.0 | 0.0 | 0.00 | 0.00 | 0.00 | 83 | 1016.3 |
| 20260902112209 | 63 | 236 | 0.0 | 0.0 | 0.00 | 0.00 | 0.00 | 83 | 1016.3 |
| 20260902111425 | 63 | 236 | 0.0 | 0.0 | 0.00 | 0.00 | 0.00 | 83 | 1016.3 |
| 20260902110921 | 63 | 236 | 0.0 | 0.0 | 0.00 | 0.00 | 0.00 | 82 | 1016.3 |
| 20260902110421 | 63 | 236 | 0.0 | 0.0 | 0.00 | 0.00 | 0.00 | 83 | 1016.3 |
| 20260902105921 | 63 | 236 | 0.0 | 0.0 | 0.00 | 0.00 | 0.00 | 83 | 1016.4 |
| 20260902105422 | 63 | 236 | 0.0 | 0.0 | 0.00 | 0.00 | 0.00 | 83 | 1016.4 |
| 20260902105146 | 63 | 236 | 0.0 | 0.0 | 0.00 | 0.00 | 0.00 | 83 | 1016.5 |
| 20260902104649 | 63 | 236 | 0.0 | 0.0 | 0.00 | 0.00 | 0.00 | 82 | 1016.6 |
| 20260902103918 | 63 | 236 | 0.0 | 0.0 | 0.00 | 0.00 | 0.00 | 82 | 1016.6 |
| 20260902103417 | 63 | 236 | 0.0 | 0.0 | 0.00 | 0.00 | 0.00 | 83 | 1016.6 |
| 20260902102913 | 63 | 236 | 0.0 | 0.0 | 0.00 | 0.00 | 0.00 | 83 | 1016.6 |
| 20260902102644 | 63 | 236 | 0.0 | 0.0 | 0.00 | 0.00 | 0.00 | 83 | 1016.6 |
| 20260902101413 | 63 | 236 | 0.0 | 0.0 | 0.00 | 0.00 | 0.00 | 82 | 1016.8 |
| 20260902100908 | 63 | 236 | 0.0 | 0.0 | 0.00 | 0.00 | 0.00 | 82 | 1016.8 |
| 20260902100409 | 63 | 236 | 0.0 | 0.0 | 0.00 | 0.00 | 0.00 | 82 | 1016.8 |
| 20260902095909 | 63 | 236 | 0.0 | 0.0 | 0.00 | 0.00 | 0.00 | 82 | 1016.8 |
| 20260902095410 | 64 | 236 | 0.0 | 0.0 | 0.00 | 0.00 | 0.00 | 82 | 1016.6 |
| 20260902094904 | 63 | 236 | 0.0 | 0.0 | 0.00 | 0.00 | 0.00 | 82 | 1016.8 |
| 20260902094405 | 64 | 236 | 0.0 | 0.0 | 0.00 | 0.00 | 0.00 | 81 | 1016.8 |
| 20260902093905 | 64 | 236 | 0.0 | 0.0 | 0.00 | 0.00 | 0.00 | 81 | 1016.8 |
| 20260902093405 | 64 | 236 | 0.0 | 2.6 | 0.00 | 0.00 | 0.00 | 81 | 1016.8 |
| 20260902093132 | 64 | 236 | 0.0 | 2.6 | 0.00 | 0.00 | 0.00 | 82 | 1016.8 |
| 20260902092401 | 64 | 236 | 0.0 | 0.0 | 0.00 | 0.00 | 0.00 | 81 | 1016.8 |
| 20260902091901 | 64 | 236 | 0.0 | 0.0 | 0.00 | 0.00 | 0.00 | 81 | 1016.8 |
| 20260902091401 | 64 | 236 | 0.0 | 0.0 | 0.00 | 0.00 | 0.00 | 81 | 1016.6 |
| 20260902090857 | 64 | 236 | 0.0 | 0.0 | 0.00 | 0.00 | 0.00 | 81 | 1016.6 |
| 20260902090358 | 64 | 236 | 0.0 | 0.0 | 0.00 | 0.00 | 0.00 | 81 | 1016.5 |
| 20260902085857 | 64 | 236 | 0.0 | 0.0 | 0.00 | 0.00 | 0.00 | 81 | 1016.5 |
| 20260902085358 | 64 | 236 | 0.0 | 1.7 | 0.00 | 0.00 | 0.00 | 81 | 1016.6 |
| 20260902085122 | 64 | 236 | 0.0 | 3.5 | 0.00 | 0.00 | 0.00 | 81 | 1016.6 |
| 20260902084353 | 64 | 236 | 0.9 | 3.5 | 0.00 | 0.00 | 0.00 | 80 | 1016.6 |
| 20260902083853 | 64 | 236 | 1.7 | 3.5 | 0.00 | 0.00 | 0.00 | 80 | 1016.8 |
| 20260902083353 | 65 | 236 | 1.7 | 3.5 | 0.00 | 0.00 | 0.00 | 80 | 1016.6 |
| 20260902082848 | 65 | 236 | 0.9 | 2.6 | 0.00 | 0.00 | 0.00 | 80 | 1016.8 |
| 20260902081850 | 65 | 236 | 1.7 | 3.5 | 0.00 | 0.00 | 0.00 | 80 | 1016.8 |
| 20260902081349 | 65 | 236 | 1.7 | 3.5 | 0.00 | 0.00 | 0.00 | 80 | 1016.8 |
| 20260902080845 | 65 | 236 | 0.9 | 3.5 | 0.00 | 0.00 | 0.00 | 79 | 1016.8 |
| 20260902080345 | 65 | 236 | 0.9 | 3.5 | 0.00 | 0.00 | 0.00 | 79 | 1016.8 |
| 20260902075845 | 65 | 236 | 0.9 | 2.6 | 0.00 | 0.00 | 0.00 | 79 | 1016.6 |
| 20260902075616 | 65 | 236 | 1.7 | 4.3 | 0.00 | 0.00 | 0.00 | 79 | 1016.5 |
| 20260902074841 | 65 | 236 | 1.7 | 4.3 | 0.00 | 0.00 | 0.00 | 79 | 1016.5 |
| 20260902074355 | 65 | 236 | 0.9 | 3.5 | 0.00 | 0.00 | 0.00 | 78 | 1016.4 |
| 20260902073842 | 65 | 236 | 0.9 | 2.6 | 0.00 | 0.00 | 0.00 | 78 | 1016.3 |
| 20260902073342 | 66 | 236 | 0.9 | 2.6 | 0.00 | 0.00 | 0.00 | 78 | 1016.3 |
| 20260902072837 | 66 | 236 | 1.7 | 2.6 | 0.00 | 0.00 | 0.00 | 78 | 1016.3 |
| 20260902072337 | 66 | 236 | 1.7 | 2.6 | 0.00 | 0.00 | 0.00 | 77 | 1016.2 |
| 20260902071837 | 66 | 236 | 1.7 | 2.6 | 0.00 | 0.00 | 0.00 | 77 | 1016.2 |
| 20260902071338 | 66 | 236 | 1.7 | 4.3 | 0.00 | 0.00 | 0.00 | 77 | 1016.1 |
| 20260902070834 | 66 | 236 | 1.7 | 4.3 | 0.00 | 0.00 | 0.00 | 76 | 1016.1 |
| 20260902070604 | 66 | 236 | 1.7 | 3.5 | 0.00 | 0.00 | 0.00 | 76 | 1016.0 |
| 20260902065332 | 67 | 236 | 1.7 | 3.5 | 0.00 | 0.00 | 0.00 | 75 | 1016.1 |
| 20260902064830 | 67 | 236 | 2.6 | 4.3 | 0.00 | 0.00 | 0.00 | 75 | 1016.1 |
| 20260902064330 | 67 | 236 | 2.6 | 4.3 | 0.00 | 0.00 | 0.00 | 75 | 1016.0 |
| 20260902063831 | 67 | 236 | 2.6 | 4.3 | 0.00 | 0.00 | 0.00 | 74 | 1016.0 |
| 20260902063329 | 67 | 236 | 2.6 | 4.3 | 0.00 | 0.00 | 0.00 | 74 | 1016.0 |
| 20260902062828 | 67 | 236 | 2.6 | 4.3 | 0.00 | 0.00 | 0.00 | 73 | 1015.9 |
| 20260902062327 | 67 | 236 | 2.6 | 4.3 | 0.00 | 0.00 | 0.00 | 73 | 1015.9 |
| 20260902061827 | 67 | 236 | 2.6 | 4.3 | 0.00 | 0.00 | 0.00 | 73 | 1015.9 |
| 20260902060823 | 68 | 236 | 2.6 | 5.2 | 0.00 | 0.00 | 0.00 | 72 | 1015.9 |
| 20260902060320 | 68 | 236 | 2.6 | 3.5 | 0.00 | 0.00 | 0.00 | 72 | 1015.9 |
| 20260902060052 | 68 | 236 | 2.6 | 6.1 | 0.00 | 0.00 | 0.00 | 71 | 1015.9 |
| 20260902055319 | 68 | 236 | 1.7 | 6.1 | 0.00 | 0.00 | 0.00 | 71 | 1015.8 |
| 20260902054818 | 68 | 240 | 1.7 | 3.5 | 0.00 | 0.00 | 0.00 | 70 | 1015.9 |
| 20260902054318 | 68 | 240 | 1.7 | 3.5 | 0.00 | 0.00 | 0.00 | 70 | 1015.9 |
| 20260902053820 | 68 | 240 | 1.7 | 4.3 | 0.00 | 0.00 | 0.00 | 70 | 1015.7 |
| 20260902053318 | 69 | 240 | 1.7 | 4.3 | 0.00 | 0.00 | 0.00 | 70 | 1015.7 |
| 20260902052814 | 69 | 240 | 1.7 | 4.3 | 0.00 | 0.00 | 0.00 | 69 | 1015.8 |
| 20260902052314 | 69 | 240 | 2.6 | 4.3 | 0.00 | 0.00 | 0.00 | 69 | 1015.8 |
| 20260902052045 | 69 | 240 | 1.7 | 3.5 | 0.00 | 0.00 | 0.00 | 68 | 1015.8 |
| 20260902051310 | 69 | 240 | 1.7 | 2.6 | 0.00 | 0.00 | 0.00 | 68 | 1015.7 |
| 20260902050818 | 69 | 240 | 1.7 | 4.3 | 0.00 | 0.00 | 0.00 | 67 | 1015.8 |
| 20260902050541 | 70 | 240 | 1.7 | 4.3 | 0.00 | 0.00 | 0.00 | 67 | 1015.7 |
| 20260902045810 | 70 | 240 | 1.7 | 4.3 | 0.00 | 0.00 | 0.00 | 67 | 1015.6 |
| 20260902045310 | 70 | 240 | 2.6 | 5.2 | 0.00 | 0.00 | 0.00 | 66 | 1015.6 |
| 20260902044809 | 71 | 240 | 2.6 | 5.2 | 0.00 | 0.00 | 0.00 | 65 | 1015.6 |
| 20260902044539 | 71 | 240 | 2.6 | 6.1 | 0.00 | 0.00 | 0.00 | 65 | 1015.5 |
| 20260902043805 | 71 | 240 | 2.6 | 7.0 | 0.00 | 0.00 | 0.00 | 64 | 1015.4 |
| 20260902043304 | 71 | 238 | 2.6 | 7.0 | 0.00 | 0.00 | 0.00 | 64 | 1015.3 |
| 20260902042804 | 71 | 236 | 2.6 | 6.1 | 0.00 | 0.00 | 0.00 | 64 | 1015.3 |
| 20260902042535 | 71 | 236 | 2.6 | 6.1 | 0.00 | 0.00 | 0.00 | 64 | 1015.2 |
| 20260902041800 | 71 | 235 | 3.5 | 6.1 | 0.00 | 0.00 | 0.00 | 64 | 1015.1 |
| 20260902041531 | 72 | 235 | 3.5 | 8.7 | 0.00 | 0.00 | 0.00 | 64 | 1015.0 |
| 20260902040800 | 72 | 235 | 3.5 | 8.7 | 0.00 | 0.00 | 0.00 | 63 | 1014.9 |
| 20260902040307 | 72 | 234 | 3.5 | 7.0 | 0.00 | 0.00 | 0.00 | 63 | 1014.8 |
| 20260902035800 | 72 | 234 | 3.5 | 8.7 | 0.00 | 0.00 | 0.00 | 62 | 1014.8 |
| 20260902035300 | 73 | 234 | 3.5 | 8.7 | 0.00 | 0.00 | 0.00 | 62 | 1014.6 |
| 20260902035038 | 73 | 235 | 3.5 | 7.0 | 0.00 | 0.00 | 0.00 | 62 | 1014.6 |
| 20260902034532 | 73 | 240 | 3.5 | 7.0 | 0.00 | 0.00 | 0.00 | 61 | 1014.4 |
| 20260902033531 | 74 | 233 | 5.2 | 10.4 | 0.00 | 0.00 | 0.00 | 60 | 1014.2 |
| 20260902032306 | 74 | 221 | 5.2 | 8.7 | 0.00 | 0.00 | 0.00 | 59 | 1014.1 |
| 20260902031752 | 74 | 225 | 5.2 | 10.4 | 0.00 | 0.00 | 0.00 | 59 | 1014.1 |
| 20260902031251 | 74 | 225 | 5.2 | 10.4 | 0.00 | 0.00 | 0.00 | 59 | 1014.0 |
| 20260902030751 | 74 | 223 | 5.2 | 7.0 | 0.00 | 0.00 | 0.00 | 58 | 1014.0 |
| 20260902030522 | 74 | 229 | 5.2 | 7.8 | 0.00 | 0.00 | 0.00 | 57 | 1013.9 |
| 20260902025751 | 74 | 221 | 5.2 | 7.8 | 0.00 | 0.00 | 0.00 | 56 | 1013.9 |
| 20260902025250 | 75 | 223 | 5.2 | 7.8 | 0.00 | 0.00 | 0.00 | 55 | 1013.9 |
| 20260902024747 | 75 | 219 | 5.2 | 10.4 | 0.00 | 0.00 | 0.00 | 54 | 1013.9 |
| 20260902024247 | 76 | 214 | 5.2 | 11.3 | 0.00 | 0.00 | 0.00 | 53 | 1013.8 |
| 20260902023744 | 76 | 221 | 5.2 | 11.3 | 0.00 | 0.00 | 0.00 | 51 | 1013.7 |
| 20260902022743 | 77 | 221 | 5.2 | 10.4 | 0.00 | 0.00 | 0.00 | 46 | 1013.6 |
| 20260902022509 | 78 | 225 | 6.1 | 12.2 | 0.00 | 0.00 | 0.00 | 44 | 1013.6 |
| 20260902021740 | 78 | 219 | 7.0 | 12.2 | 0.00 | 0.00 | 0.00 | 42 | 1013.6 |
| 20260902021239 | 78 | 228 | 7.0 | 12.2 | 0.00 | 0.00 | 0.00 | 40 | 1013.6 |
| 20260902021011 | 79 | 217 | 6.1 | 12.2 | 0.00 | 0.00 | 0.00 | 37 | 1013.6 |
| 20260902020238 | 80 | 219 | 5.2 | 7.8 | 0.00 | 0.00 | 0.00 | 34 | 1013.6 |
| 20260902015740 | 80 | 212 | 5.2 | 8.7 | 0.00 | 0.00 | 0.00 | 32 | 1013.6 |
| 20260902015237 | 80 | 219 | 5.2 | 8.7 | 0.00 | 0.00 | 0.00 | 32 | 1013.5 |
| 20260902015008 | 81 | 227 | 5.2 | 9.6 | 0.00 | 0.00 | 0.00 | 32 | 1013.5 |
| 20260902014237 | 81 | 208 | 5.2 | 9.6 | 0.00 | 0.00 | 0.00 | 31 | 1013.5 |
| 20260902013738 | 81 | 221 | 6.1 | 9.6 | 0.00 | 0.00 | 0.00 | 31 | 1013.6 |
| 20260902013237 | 81 | 217 | 7.0 | 11.3 | 0.00 | 0.00 | 0.00 | 31 | 1013.5 |
| 20260902012737 | 82 | 214 | 7.0 | 11.3 | 0.00 | 0.00 | 0.00 | 31 | 1013.5 |
| 20260902012237 | 82 | 221 | 7.0 | 14.8 | 0.00 | 0.00 | 0.00 | 31 | 1013.5 |
| 20260902011737 | 82 | 234 | 7.0 | 14.8 | 0.00 | 0.00 | 0.00 | 30 | 1013.5 |
| 20260902011236 | 83 | 226 | 7.0 | 12.2 | 0.00 | 0.00 | 0.00 | 30 | 1013.5 |
| 20260902010738 | 83 | 220 | 7.0 | 13.0 | 0.00 | 0.00 | 0.00 | 30 | 1013.6 |
| 20260902010236 | 83 | 215 | 7.8 | 13.0 | 0.00 | 0.00 | 0.00 | 28 | 1013.6 |
| 20260902005738 | 83 | 219 | 7.0 | 13.0 | 0.00 | 0.00 | 0.00 | 28 | 1013.7 |
| 20260902005236 | 84 | 225 | 6.1 | 11.3 | 0.00 | 0.00 | 0.00 | 29 | 1013.7 |
| 20260902005007 | 84 | 223 | 7.0 | 12.2 | 0.00 | 0.00 | 0.00 | 29 | 1013.7 |
| 20260902004237 | 84 | 223 | 7.0 | 12.2 | 0.00 | 0.00 | 0.00 | 28 | 1013.8 |
| 20260902003737 | 85 | 234 | 6.1 | 11.3 | 0.00 | 0.00 | 0.00 | 28 | 1013.8 |
| 20260902003234 | 85 | 202 | 7.0 | 11.3 | 0.00 | 0.00 | 0.00 | 28 | 1013.8 |
| 20260902002735 | 85 | 192 | 7.0 | 12.2 | 0.00 | 0.00 | 0.00 | 28 | 1013.8 |
| 20260902002235 | 85 | 209 | 7.0 | 12.2 | 0.00 | 0.00 | 0.00 | 28 | 1013.8 |